[[{"header":{"parameterUnit":"m.s-1","parameterCategory":2,"la1":30.2991,"la2":30.254,"lo1":-89.0895,"lo2":-89.0444,"dy":0.0017,"dx":0.0017,"nx":28,"ny":28,"refTime":"2024-07-13T21:00:00:Z","depth":"0","parameterNumber":2,"parameterNumberName":"U-component_of_CURRENTS"},"data":[0,0,0,0,0,0,0,0,0,0,0,0,0,0,0,0,0,0,0,0,0,0,0,0,0,0,0,0,0,0,0,0,0,0,0,0,0,0,0,0,0,0,0,0,0,0,0,0,0,0,0,0,0,0,0,0,0,0,0.231,0.231,0,0.2313,0.2312,0.2312,0.2306,0.2306,0.2306,0.2307,0.2306,0.2306,0.2306,0,0,0,0,0,0,0,0,0,0,0,0,0,0.2199,0.2201,0.231,0.231,0.2311,0.2313,0.2312,0.2312,0.2306,0.2306,0.2307,0.2307,0.2307,0.2306,0.2306,0,0,0,0,0,0,0,0,0,0,0,0,0,0.2222,0.2201,0.231,0.2313,0.2314,0.2313,0.2312,0.2311,0.2305,0.2306,0.2307,0.2307,0.2307,0.2306,0.2305,0.2288,0,0,0.2304,0.2303,0,0,0,0,0,0,0,0,0.2221,0.2226,0.2312,0.2313,0.2314,0.2316,0.2273,0.2306,0.2305,0.2301,0.2307,0.2308,0.2313,0.2312,0.2301,0.2288,0.2288,0.2303,0.2303,0.2303,0.2303,0,0,0,0,0,0,0,0.222,0.2225,0.2304,0.2313,0.2314,0.2281,0.2285,0.2278,0.2298,0.2302,0.2303,0.2314,0.2313,0.2302,0.2301,0.2288,0.2303,0.2303,0.2303,0.2302,0.2276,0.2276,0,0,0,0,0,0,0.2238,0.2224,0.2304,0.2305,0.2276,0.2284,0.2288,0.2309,0.2298,0.2299,0.2314,0.2314,0.2303,0.2302,0.2301,0.2279,0.2303,0.2302,0.2302,0.2277,0.2276,0.2276,0,0,0,0,0,0,0.2236,0.2246,0.2304,0.2269,0.2275,0.2286,0.2309,0.2309,0.2297,0.2309,0.2308,0.2304,0.2303,0.2302,0.2294,0.2279,0.2302,0.2301,0.2277,0.2277,0.2276,0.2236,0,0,0,0,0,0,0.2233,0.2245,0.2251,0.2271,0.2278,0.2295,0.2309,0.2309,0.2307,0.2307,0.23,0.2301,0.2304,0.2295,0.2293,0.2279,0.2301,0.2277,0.2277,0.2276,0.2237,0.2234,0.2231,0,0,0,0,0,0.2229,0.2238,0.2252,0.2261,0.2292,0.2295,0.2294,0.2299,0.2306,0.2292,0.2295,0.2301,0.229,0.2294,0.2292,0.2277,0.2278,0.2277,0.2276,0.2239,0.2235,0.2231,0,0,0,0,0,0,0.218,0.224,0.2255,0.2279,0.2285,0.2297,0.2289,0.2295,0.2283,0.2287,0.2292,0.2292,0.2283,0.2286,0.229,0.227,0.2287,0.2286,0.2259,0.2255,0.2252,0.2243,0.23,0,0,0,0,0,0.2178,0.2204,0.2243,0.2252,0.2264,0.2274,0.2273,0.2281,0.2284,0.2279,0.2275,0.2277,0.2277,0.2271,0.2272,0.2253,0.2262,0.2246,0.2242,0.224,0.2232,0.2235,0.2232,0.2274,0.2274,0.2274,0,0,0.2156,0.2195,0.2205,0.2243,0.225,0.2251,0.2272,0.2275,0.2264,0.2282,0.2255,0.2265,0.2273,0.2257,0.2253,0.2257,0.2232,0.2239,0.2236,0.223,0.2234,0.223,0.2226,0.2273,0.2273,0.2273,0,0,0.2126,0.2166,0.2178,0.219,0.2218,0.2226,0.2228,0.2241,0.2236,0.222,0.2237,0.2238,0.2224,0.2229,0.223,0.2209,0.222,0.221,0.2177,0.218,0.2176,0.2173,0.2178,0.2175,0.2202,0.2202,0.2202,0,0.2092,0.2127,0.217,0.2182,0.2185,0.2215,0.2208,0.2207,0.2207,0.2199,0.2207,0.2201,0.221,0.22,0.2194,0.22,0.2204,0.219,0.2175,0.2172,0.2169,0.2175,0.2173,0.22,0.22,0.2201,0.2201,0,0.2076,0.2098,0.2101,0.2133,0.2133,0.2133,0.2154,0.2144,0.2146,0.2148,0.2137,0.215,0.2148,0.2152,0.2163,0.2151,0.2161,0.2175,0.2182,0.2163,0.217,0.2168,0.2197,0.2198,0.2199,0.2199,0,0,0.2013,0.2079,0.2078,0.2089,0.2112,0.2113,0.2096,0.2091,0.2084,0.2081,0.2062,0.2069,0.2087,0.2091,0.2111,0.211,0.21,0.2128,0.2129,0.2128,0.2104,0.2105,0.2104,0.2109,0.2109,0.2108,0.2116,0,0.198,0.2004,0.2035,0.2025,0.2037,0.2054,0.2035,0.2033,0.2033,0.2022,0.2039,0.2039,0.2062,0.2069,0.2068,0.2099,0.2094,0.2096,0.2127,0.2128,0.2127,0.2101,0.2126,0.2133,0.2114,0.2114,0.2114,0,0.1952,0.1978,0.1975,0.1997,0.2,0.1989,0.1974,0.1967,0.1966,0.1966,0.1968,0.1989,0.1996,0.2021,0.2044,0.2044,0.2065,0.2084,0.2085,0.2098,0.2126,0.2151,0.2132,0.2113,0.2112,0.2112,0.2112,0,0.1902,0.1931,0.1929,0.1936,0.196,0.1946,0.195,0.1945,0.1936,0.1941,0.1935,0.195,0.1961,0.1985,0.2028,0.2035,0.2051,0.2071,0.2088,0.2089,0.2121,0.2125,0.2084,0.2074,0.2074,0.2074,0.2074,0,0.1864,0.1862,0.1912,0.1912,0.1896,0.1922,0.1897,0.1903,0.1902,0.1889,0.1915,0.1908,0.1951,0.1968,0.2008,0.2041,0.2037,0.2073,0.2085,0.2108,0.2111,0.2106,0.2041,0.2075,0.2075,0.2075,0.2075,0,0.1808,0.1843,0.1846,0.1873,0.1877,0.1868,0.1873,0.1861,0.187,0.1854,0.1856,0.1873,0.1905,0.1946,0.1989,0.2015,0.1981,0.2063,0.2085,0.21,0.2098,0.2028,0.1796,0.1699,0.2081,0.2081,0.2081,0,0.1785,0.1786,0.1812,0.1813,0.1824,0.1822,0.1818,0.1837,0.1829,0.1832,0.1822,0.1845,0.1859,0.1922,0.1998,0.2062,0.1957,0.2091,0.2106,0.2086,0.2019,0.1837,0.1759,0.2138,0.2139,0.2139,0.2139,0,0.1736,0.1744,0.1752,0.1758,0.1759,0.1758,0.1762,0.1754,0.1772,0.1765,0.1766,0.1781,0.1861,0.1932,0.2011,0.2065,0.1964,0.2099,0.2075,0.2043,0.1843,0.1763,0.2144,0.2143,0.2142,0.2142,0.2142,0.2142,0.1693,0.1683,0.1698,0.1694,0.1699,0.1695,0.1675,0.1691,0.1682,0.1664,0.1709,0.1725,0.1853,0.1987,0.2037,0.2133,0.1968,0.2128,0.2042,0.1859,0.1753,0.213,0.2144,0.2143,0.2143,0.2143,0.2143,0,0.1636,0.1635,0.1635,0.1629,0.1612,0.1633,0.1631,0.1605,0.1587,0.1611,0.1614,0.1719,0.1841,0.1965,0.2127,0.2107,0.1978,0.2043,0.1833,0.1756,0.2143,0.2143,0.216,0.216,0.216,0.216,0.216,0.216,0.1604,0.1582,0.1582,0.1544,0.1537,0.15,0.1488,0.147,0.1482,0.1481,0.1513,0.156,0.1704,0.1894,0.2019,0.2019,0.1798,0.1709,0.1574,0.195,0.1953,0.1955,0.1946,0.1921,0.192,0.1182,0.1176,0.1172]},{"header":{"parameterUnit":"m.s-1","parameterCategory":2,"la1":30.2991,"la2":30.254,"lo1":-89.0895,"lo2":-89.0444,"dy":0.0017,"dx":0.0017,"nx":28,"ny":28,"refTime":"2024-07-13T21:00:00:Z","depth":"0","parameterNumber":3,"parameterNumberName":"V-component_of_CURRENTS"},"data":[0,0,0,0,0,0,0,0,0,0,0,0,0,0,0,0,0,0,0,0,0,0,0,0,0,0,0,0,0,0,0,0,0,0,0,0,0,0,0,0,0,0,0,0,0,0,0,0,0,0,0,0,0,0,0,0,0,0,0.0027,0.0026,0,0.0015,0.0015,0.0015,0.0002,0.0002,0.0001,0.0001,0.0043,0.0044,0.0045,0,0,0,0,0,0,0,0,0,0,0,0,0,0.0033,0.0033,0.0027,0.0026,0.0026,0.0015,0.0015,0.0015,0.0002,0.0002,0.0001,0.0001,0.0042,0.0044,0.0045,0,0,0,0,0,0,0,0,0,0,0,0,0,0.0028,0.0033,0.0027,0.0018,0.0016,0.0015,0.0015,0.0015,0.0002,0.0002,0.0001,0.0001,0.0042,0.0044,0.0046,0.0067,0,0,0.0052,0.0053,0,0,0,0,0,0,0,0,0.0028,0.0028,0.0019,0.0018,0.0017,0.0008,0.0032,0.0034,0.0002,0.0009,0.0001,0.0001,0.0036,0.0038,0.0038,0.0069,0.0071,0.0052,0.0053,0.0054,0.0055,0,0,0,0,0,0,0,0.0029,0.0028,0.0023,0.0019,0.0018,0.0012,0.0011,0.0032,0.0027,0.0008,0.0007,0.0004,0.0036,0.0036,0.0039,0.0071,0.0052,0.0054,0.0055,0.0056,0.0132,0.0133,0,0,0,0,0,0,0.0028,0.0029,0.0023,0.0023,0.002,0.0012,0.0011,0.0013,0.0025,0.0026,0.0004,0.0003,0.0033,0.0036,0.004,0.0075,0.0054,0.0056,0.0057,0.0131,0.0132,0.0133,0,0,0,0,0,0,0.0029,0.0028,0.0024,0.0024,0.0023,0.0013,0.0014,0.0013,0.001,0.0022,0.0023,0.0003,0.0032,0.0038,0.0065,0.0076,0.0057,0.0059,0.0131,0.0132,0.0133,0.014,0,0,0,0,0,0,0.0029,0.0029,0.0031,0.0024,0.0023,0.0023,0.0014,0.0013,0.0008,0.0007,0.0021,0.0024,0.0032,0.0062,0.0067,0.0079,0.0061,0.013,0.0131,0.0132,0.0138,0.0141,0.0143,0,0,0,0,0,0.0029,0.0028,0.0032,0.0031,0.0027,0.0023,0.0022,0.0014,0.0008,0.0009,0.0024,0.0024,0.0075,0.0064,0.007,0.0083,0.0129,0.0131,0.0132,0.0137,0.014,0.0143,0,0,0,0,0,0,0.002,0.0027,0.003,0.0028,0.0028,0.002,0.0018,0.0014,0.0025,0.0026,0.0037,0.0042,0.007,0.0078,0.0066,0.011,0.0101,0.0104,0.0103,0.0106,0.0108,0.0096,0.0062,0,0,0,0,0,0.0023,0.0032,0.0032,0.003,0.0031,0.0027,0.0025,0.0021,0.0026,0.0029,0.0042,0.006,0.0083,0.0094,0.0114,0.014,0.0132,0.0152,0.0154,0.0156,0.0151,0.015,0.0151,0.0139,0.0139,0.0139,0,0,0.0016,0.0023,0.0025,0.0031,0.003,0.0036,0.0025,0.0021,0.003,0.0035,0.0056,0.0071,0.0092,0.012,0.0133,0.0127,0.0156,0.0158,0.016,0.0153,0.0152,0.0152,0.0153,0.014,0.014,0.014,0,0,0.0008,0.0016,0.0023,0.0031,0.0035,0.0038,0.0038,0.0038,0.0042,0.0064,0.0072,0.009,0.0125,0.0138,0.0151,0.0179,0.0169,0.0189,0.019,0.0189,0.019,0.019,0.0179,0.0178,0.0188,0.0188,0.0189,0,-0.0003,0.0012,0.0021,0.0033,0.0039,0.004,0.0047,0.0055,0.0066,0.0074,0.0073,0.0115,0.0132,0.0161,0.0171,0.0183,0.0176,0.0176,0.0191,0.0191,0.0191,0.0179,0.0178,0.0189,0.0189,0.0189,0.0189,0,-0.0001,0.0015,0.0017,0.0042,0.005,0.0054,0.0069,0.0081,0.0088,0.0095,0.0121,0.0139,0.0159,0.0172,0.0182,0.0197,0.0189,0.0193,0.0179,0.0192,0.0179,0.0178,0.019,0.019,0.0189,0.0189,0,0,-0.0033,0.001,0.0012,0.0032,0.0057,0.0062,0.0085,0.0103,0.0115,0.0129,0.0141,0.0176,0.0172,0.0186,0.0196,0.0198,0.0196,0.0195,0.0195,0.0175,0.0185,0.0164,0.016,0.02,0.02,0.02,0.0174,0,-0.0035,-0.0006,0.0014,0.0042,0.006,0.0079,0.01,0.0119,0.0134,0.015,0.0161,0.018,0.0183,0.0189,0.0191,0.0197,0.0193,0.0202,0.0182,0.0181,0.0154,0.0158,0.0194,0.0172,0.0173,0.0172,0.0172,0,-0.0034,-0.0011,0.0013,0.0058,0.0065,0.0081,0.0113,0.0131,0.0155,0.0165,0.0175,0.0182,0.0191,0.0189,0.0187,0.0192,0.0187,0.0186,0.0185,0.016,0.0158,0.016,0.0169,0.0213,0.017,0.017,0.0171,0,-0.0044,-0.0008,0.0015,0.0029,0.0072,0.0086,0.0105,0.0133,0.0151,0.0169,0.0177,0.0184,0.0187,0.0182,0.0179,0.0182,0.017,0.0174,0.0147,0.0145,0.0168,0.0168,0.0209,0.0167,0.0167,0.0167,0.0167,0,-0.0039,-0.0017,0.0012,0.0029,0.0053,0.0081,0.0106,0.0126,0.015,0.0169,0.0179,0.0189,0.0186,0.0181,0.0175,0.0152,0.0164,0.0142,0.0137,0.0172,0.0172,0.0204,0.021,0.0166,0.0167,0.0167,0.0167,0,-0.0037,-0.0018,0.001,0.0044,0.0054,0.0071,0.0109,0.0127,0.0147,0.0169,0.0173,0.0189,0.0183,0.0174,0.0165,0.0145,0.0159,0.012,0.0153,0.0152,0.0156,0.016,0.016,0.0247,0.0078,0.0077,0.0077,0,-0.0027,-0.0014,0.0013,0.0024,0.0042,0.0069,0.0089,0.0121,0.0141,0.0171,0.018,0.0182,0.0193,0.0161,0.0138,0.0111,0.0154,0.0107,0.0118,0.0156,0.0158,0.0165,0.0243,0.0153,0.0154,0.0154,0.0154,0,-0.0013,-0.0011,0.0006,0.0023,0.0042,0.0071,0.0102,0.0117,0.0152,0.0171,0.0192,0.0202,0.0185,0.0181,0.014,0.0122,0.0163,0.0105,0.0149,0.0218,0.0225,0.0308,0.0163,0.0154,0.0154,0.0154,0.0154,0.0154,-0.0012,-0.0005,0.0006,0.0024,0.0044,0.0072,0.0097,0.0129,0.016,0.0205,0.0209,0.0243,0.0257,0.0212,0.0167,0.0155,0.0169,0.017,0.017,0.0172,0.0266,0.0107,0.0089,0.0089,0.0088,0.0088,0.0088,0,-0.0011,-0.0004,0.0009,0.003,0.005,0.0065,0.0106,0.0135,0.0172,0.0222,0.0255,0.0324,0.0324,0.0302,0.0286,0.0259,0.0285,0.0248,0.0297,0.0377,0.0242,0.0258,0.0271,0.0271,0.0271,0.027,0.027,0.027,-0.001,-0.0003,0.0003,0.003,0.0047,0.0082,0.0106,0.0151,0.0195,0.0272,0.0332,0.0392,0.0483,0.0408,0.0388,0.0358,0.0452,0.0364,0.0438,0.0356,0.0351,0.0345,0.0364,0.0399,0.0399,0.0634,0.0636,0.0637]}],[{"header":{"parameterUnit":"m.s-1","parameterCategory":2,"la1":30.2991,"la2":30.254,"lo1":-89.0895,"lo2":-89.0444,"dy":0.0017,"dx":0.0017,"nx":28,"ny":28,"refTime":"2024-07-13T21:00:00:Z","depth":"2","parameterNumber":2,"parameterNumberName":"U-component_of_CURRENTS"},"data":[0,0,0,0,0,0,0,0,0,0,0,0,0,0,0,0,0,0,0,0,0,0,0,0,0,0,0,0,0,0,0,0,0,0,0,0,0,0,0,0,0,0,0,0,0,0,0,0,0,0,0,0,0,0,0,0,0,0,-0.0808,-0.0808,0,-0.0869,-0.087,-0.0871,-0.08,-0.0798,-0.0795,-0.0792,-0.076,-0.0762,-0.0763,0,0,0,0,0,0,0,0,0,0,0,0,0,-0.0682,-0.0684,-0.0807,-0.0808,-0.0809,-0.0869,-0.087,-0.0871,-0.0801,-0.0798,-0.0794,-0.0791,-0.0759,-0.0761,-0.0763,0,0,0,0,0,0,0,0,0,0,0,0,0,-0.074,-0.0685,-0.0807,-0.078,-0.0778,-0.0869,-0.087,-0.0871,-0.0802,-0.0797,-0.0793,-0.0789,-0.0759,-0.0761,-0.0764,-0.0863,0,0,-0.0772,-0.0773,0,0,0,0,0,0,0,0,-0.0737,-0.0745,-0.0784,-0.0782,-0.078,-0.0822,-0.0814,-0.0863,-0.0803,-0.0794,-0.0792,-0.0787,-0.0774,-0.0775,-0.0799,-0.0861,-0.086,-0.0772,-0.0773,-0.0774,-0.0775,0,0,0,0,0,0,0,-0.0733,-0.0742,-0.0833,-0.0785,-0.0783,-0.0783,-0.0786,-0.0823,-0.0806,-0.0795,-0.0789,-0.0795,-0.0772,-0.0797,-0.0798,-0.0859,-0.0772,-0.0774,-0.0776,-0.0777,-0.0819,-0.0818,0,0,0,0,0,0,-0.0725,-0.0739,-0.0831,-0.0835,-0.0746,-0.0788,-0.0792,-0.0814,-0.0807,-0.0803,-0.0799,-0.0792,-0.0795,-0.0795,-0.0796,-0.0738,-0.0774,-0.0777,-0.0778,-0.0819,-0.0819,-0.0818,0,0,0,0,0,0,-0.0723,-0.0734,-0.0829,-0.0786,-0.0797,-0.0794,-0.0819,-0.0817,-0.0777,-0.0812,-0.0804,-0.0753,-0.0791,-0.0792,-0.0777,-0.0742,-0.0778,-0.078,-0.082,-0.0819,-0.0818,-0.0735,0,0,0,0,0,0,-0.0719,-0.0733,-0.073,-0.0786,-0.0799,-0.0849,-0.0823,-0.0821,-0.0791,-0.0781,-0.0772,-0.0769,-0.0788,-0.0773,-0.0779,-0.0747,-0.0782,-0.082,-0.0819,-0.0819,-0.0738,-0.0731,-0.0726,0,0,0,0,0,-0.0715,-0.0729,-0.073,-0.074,-0.0802,-0.0849,-0.0855,-0.084,-0.0792,-0.0785,-0.0765,-0.0765,-0.0771,-0.0775,-0.0783,-0.075,-0.082,-0.0819,-0.0819,-0.0741,-0.0733,-0.0726,0,0,0,0,0,0,-0.0669,-0.0726,-0.0727,-0.0755,-0.0783,-0.0835,-0.082,-0.0813,-0.0798,-0.0756,-0.0773,-0.0771,-0.0741,-0.0769,-0.0772,-0.0761,-0.0792,-0.0793,-0.0731,-0.0723,-0.0717,-0.0723,-0.0784,0,0,0,0,0,-0.0664,-0.0686,-0.0738,-0.0756,-0.0758,-0.0779,-0.0784,-0.0776,-0.0781,-0.0766,-0.0759,-0.0752,-0.0763,-0.0753,-0.0771,-0.0778,-0.0799,-0.0759,-0.0753,-0.0747,-0.0759,-0.0769,-0.0764,-0.0815,-0.0815,-0.0815,0,0,-0.0653,-0.0684,-0.0696,-0.0746,-0.0755,-0.078,-0.0769,-0.076,-0.0768,-0.0769,-0.074,-0.0728,-0.0759,-0.0753,-0.0743,-0.0758,-0.0739,-0.0746,-0.0741,-0.0756,-0.0768,-0.0763,-0.0758,-0.0814,-0.0814,-0.0814,0,0,-0.0649,-0.0661,-0.0673,-0.0697,-0.0708,-0.0737,-0.0719,-0.0736,-0.0715,-0.0717,-0.0702,-0.0674,-0.0694,-0.0706,-0.072,-0.07,-0.0705,-0.0681,-0.0653,-0.0662,-0.0658,-0.0655,-0.0647,-0.0644,-0.0677,-0.0677,-0.0677,0,-0.0622,-0.0662,-0.0682,-0.0698,-0.0708,-0.0709,-0.0718,-0.0731,-0.0735,-0.072,-0.0686,-0.0681,-0.0686,-0.0696,-0.067,-0.0685,-0.0678,-0.0673,-0.0653,-0.065,-0.0648,-0.0641,-0.0639,-0.0673,-0.0674,-0.0674,-0.0674,0,-0.0644,-0.0657,-0.0657,-0.0689,-0.0704,-0.0707,-0.0732,-0.0714,-0.0678,-0.0689,-0.0652,-0.0655,-0.0645,-0.0635,-0.0644,-0.0624,-0.0617,-0.0639,-0.0667,-0.0638,-0.0632,-0.0631,-0.0667,-0.0669,-0.067,-0.0671,0,0,-0.0621,-0.0666,-0.0658,-0.0668,-0.069,-0.071,-0.0709,-0.0726,-0.0707,-0.0683,-0.0662,-0.0651,-0.0606,-0.0619,-0.0606,-0.0608,-0.0566,-0.0597,-0.0599,-0.0581,-0.0554,-0.0461,-0.0451,-0.0564,-0.0564,-0.0564,-0.0545,0,-0.0619,-0.0654,-0.0675,-0.0693,-0.0707,-0.0708,-0.0719,-0.0723,-0.0705,-0.0687,-0.0666,-0.0636,-0.0618,-0.057,-0.057,-0.0574,-0.0563,-0.0568,-0.0594,-0.0595,-0.0509,-0.0447,-0.0485,-0.0463,-0.0544,-0.0544,-0.0544,0,-0.0622,-0.0651,-0.0662,-0.0694,-0.0693,-0.0692,-0.0682,-0.0692,-0.0682,-0.0656,-0.0616,-0.0597,-0.0573,-0.0559,-0.0554,-0.0545,-0.0533,-0.0544,-0.0544,-0.0492,-0.05,-0.0513,-0.0458,-0.0542,-0.0543,-0.0543,-0.0543,0,-0.0596,-0.0636,-0.064,-0.0651,-0.0687,-0.0657,-0.0657,-0.0649,-0.0644,-0.0604,-0.0578,-0.0564,-0.0523,-0.053,-0.0506,-0.052,-0.0506,-0.0545,-0.046,-0.0454,-0.0514,-0.0512,-0.0544,-0.0544,-0.0544,-0.0544,-0.0544,0,-0.0597,-0.0597,-0.0613,-0.0614,-0.0604,-0.0616,-0.0583,-0.0579,-0.056,-0.0536,-0.0526,-0.0497,-0.0506,-0.0492,-0.0497,-0.0447,-0.0492,-0.044,-0.0437,-0.0481,-0.0476,-0.0582,-0.0587,-0.0544,-0.0544,-0.0544,-0.0544,0,-0.0566,-0.0579,-0.0584,-0.0593,-0.0583,-0.0557,-0.0538,-0.0526,-0.0498,-0.0461,-0.0434,-0.0434,-0.0386,-0.0399,-0.0404,-0.0408,-0.04,-0.0372,-0.0399,-0.0397,-0.0353,-0.0354,-0.0297,-0.0294,-0.0291,-0.0288,-0.0286,0,-0.0566,-0.0559,-0.055,-0.053,-0.0513,-0.0485,-0.0467,-0.0468,-0.0455,-0.0414,-0.0397,-0.0338,-0.0295,-0.0267,-0.0239,-0.0216,-0.0281,-0.0263,-0.0304,-0.0321,-0.0325,-0.0331,-0.0336,-0.0357,-0.0356,-0.0355,-0.0354,0,-0.0566,-0.0529,-0.0533,-0.0479,-0.0441,-0.0446,-0.0411,-0.0403,-0.0385,-0.0343,-0.0277,-0.0235,-0.017,-0.016,-0.0117,-0.0123,-0.0271,-0.0234,-0.0265,-0.0386,-0.0368,-0.0375,-0.038,-0.0344,-0.0345,-0.0346,-0.0346,-0.0347,-0.0541,-0.0533,-0.0492,-0.0432,-0.0406,-0.0376,-0.0344,-0.0322,-0.0278,-0.0218,-0.021,-0.0145,-0.0224,-0.0122,-0.0117,-0.0077,-0.0082,-0.0185,-0.0194,-0.0203,-0.0185,-0.016,-0.0093,-0.0093,-0.0092,-0.0092,-0.0092,0,-0.054,-0.0499,-0.0453,-0.0397,-0.0353,-0.0324,-0.0295,-0.0277,-0.0189,-0.0175,-0.0112,-0.014,-0.0155,-0.0166,-0.0073,-0.0071,-0.0116,-0.0117,-0.0234,-0.0243,-0.0251,-0.0241,-0.0162,-0.0162,-0.0162,-0.0162,0,0,-0.0536,-0.049,-0.0454,-0.0353,-0.0287,-0.0211,-0.0168,-0.0154,-0.0151,-0.01,-0.006,-0.0153,-0.0177,-0.0192,-0.0217,-0.0165,-0.0202,-0.0158,-0.0107,-0.0255,-0.0264,-0.0297,-0.029,0,0,0,0,0]},{"header":{"parameterUnit":"m.s-1","parameterCategory":2,"la1":30.2991,"la2":30.254,"lo1":-89.0895,"lo2":-89.0444,"dy":0.0017,"dx":0.0017,"nx":28,"ny":28,"refTime":"2024-07-13T21:00:00:Z","depth":"2","parameterNumber":3,"parameterNumberName":"V-component_of_CURRENTS"},"data":[0,0,0,0,0,0,0,0,0,0,0,0,0,0,0,0,0,0,0,0,0,0,0,0,0,0,0,0,0,0,0,0,0,0,0,0,0,0,0,0,0,0,0,0,0,0,0,0,0,0,0,0,0,0,0,0,0,0,-0.0046,-0.0046,0,-0.007,-0.007,-0.0071,-0.0109,-0.011,-0.0111,-0.0112,-0.014,-0.014,-0.014,0,0,0,0,0,0,0,0,0,0,0,0,0,-0.0024,-0.0025,-0.0046,-0.0046,-0.0046,-0.007,-0.007,-0.0071,-0.0109,-0.011,-0.0111,-0.0112,-0.014,-0.014,-0.014,0,0,0,0,0,0,0,0,0,0,0,0,0,-0.0039,-0.0025,-0.0046,-0.0069,-0.0072,-0.007,-0.007,-0.0071,-0.0109,-0.011,-0.0111,-0.0113,-0.014,-0.014,-0.014,-0.0117,0,0,-0.0141,-0.0141,0,0,0,0,0,0,0,0,-0.0038,-0.0039,-0.0065,-0.0068,-0.007,-0.0089,-0.0073,-0.0087,-0.0109,-0.0094,-0.0112,-0.0113,-0.0123,-0.0125,-0.0125,-0.0118,-0.012,-0.0141,-0.0141,-0.0141,-0.0141,0,0,0,0,0,0,0,-0.0037,-0.0039,-0.0055,-0.0066,-0.0069,-0.0076,-0.0079,-0.0076,-0.0101,-0.0095,-0.0098,-0.0102,-0.0125,-0.0125,-0.0126,-0.012,-0.0141,-0.0141,-0.0141,-0.0141,-0.0156,-0.0156,0,0,0,0,0,0,-0.0035,-0.0038,-0.0054,-0.0055,-0.0058,-0.0075,-0.0079,-0.0081,-0.0101,-0.0106,-0.0101,-0.0104,-0.0125,-0.0126,-0.0128,-0.014,-0.0141,-0.0141,-0.0141,-0.0156,-0.0156,-0.0156,0,0,0,0,0,0,-0.0034,-0.0036,-0.0053,-0.0048,-0.0051,-0.0075,-0.0076,-0.0081,-0.0102,-0.0106,-0.011,-0.012,-0.0126,-0.0127,-0.0148,-0.014,-0.0141,-0.0141,-0.0155,-0.0156,-0.0156,-0.0141,0,0,0,0,0,0,-0.0033,-0.0035,-0.0046,-0.0048,-0.0051,-0.0062,-0.0075,-0.008,-0.0101,-0.0106,-0.0122,-0.0125,-0.0127,-0.0148,-0.0148,-0.014,-0.0141,-0.0155,-0.0155,-0.0156,-0.0141,-0.0141,-0.0141,0,0,0,0,0,-0.0032,-0.0038,-0.0047,-0.0049,-0.0062,-0.0062,-0.0064,-0.0084,-0.0101,-0.0108,-0.0129,-0.0126,-0.0153,-0.0149,-0.0149,-0.0141,-0.0154,-0.0155,-0.0156,-0.0141,-0.0141,-0.0141,0,0,0,0,0,0,-0.0034,-0.0042,-0.0052,-0.0061,-0.0067,-0.0069,-0.0081,-0.0092,-0.0112,-0.0123,-0.0132,-0.0135,-0.015,-0.0152,-0.0147,-0.0149,-0.0152,-0.0153,-0.014,-0.014,-0.014,-0.0114,-0.0141,0,0,0,0,0,-0.0038,-0.0048,-0.0052,-0.0061,-0.0065,-0.0076,-0.0084,-0.0093,-0.0105,-0.0117,-0.013,-0.0144,-0.0148,-0.0152,-0.0159,-0.0158,-0.0134,-0.0154,-0.0154,-0.0154,-0.0134,-0.0096,-0.0089,-0.0159,-0.0159,-0.0159,0,0,-0.0042,-0.0049,-0.0056,-0.0063,-0.0071,-0.0066,-0.0084,-0.0095,-0.0093,-0.0114,-0.0131,-0.0146,-0.015,-0.0153,-0.0159,-0.0157,-0.0125,-0.0155,-0.0154,-0.0134,-0.0096,-0.0089,-0.0082,-0.016,-0.016,-0.016,0,0,-0.0041,-0.006,-0.0063,-0.0063,-0.0073,-0.0075,-0.0081,-0.0091,-0.0104,-0.0113,-0.0131,-0.0138,-0.0154,-0.0146,-0.0144,-0.0145,-0.0129,-0.0162,-0.0133,-0.0096,-0.0089,-0.0083,-0.0053,-0.0044,-0.0157,-0.0157,-0.0157,0,-0.0049,-0.0047,-0.0063,-0.0056,-0.0056,-0.0078,-0.007,-0.0077,-0.0095,-0.0097,-0.012,-0.0128,-0.0138,-0.0119,-0.0127,-0.014,-0.0126,-0.0131,-0.0093,-0.0086,-0.008,-0.005,-0.0041,-0.0156,-0.0156,-0.0157,-0.0157,0,-0.0038,-0.0039,-0.0039,-0.0038,-0.004,-0.0039,-0.0043,-0.0054,-0.0075,-0.0076,-0.008,-0.0092,-0.0091,-0.0101,-0.0115,-0.0081,-0.0089,-0.0099,-0.0086,-0.0071,-0.0042,-0.0032,-0.0155,-0.0156,-0.0156,-0.0156,0,0,-0.0057,-0.0036,-0.004,-0.0028,-0.003,-0.0027,-0.0024,-0.002,-0.0014,-0.0033,-0.0017,-0.0028,-0.004,-0.0038,-0.0055,-0.0028,0.0018,-0.0049,-0.0047,-0.0006,0.0093,0.0094,0.0105,0.0009,0.0011,0.0013,0.0092,0,-0.0049,-0.0023,-0.0019,-0.0001,0.0013,0.0006,0.0014,0.0015,0.0008,0.0015,0.0014,0.0016,-0.0014,-0.0019,0.0006,0.0008,0.0046,-0.0002,0.0062,0.0064,0.0074,0.0118,0.0125,0.0197,0.0102,0.0104,0.0105,0,-0.0049,-0.0027,-0.0002,0.0029,0.0032,0.0038,0.0049,0.0056,0.0067,0.0064,0.0075,0.0065,0.0089,0.0063,0.0113,0.0077,0.0094,0.0104,0.0107,0.0117,0.0085,0.0167,0.0219,0.0122,0.0121,0.0119,0.0118,0,-0.0057,-0.0021,-0.0001,0.0009,0.004,0.0044,0.0053,0.0065,0.0074,0.0094,0.0103,0.0129,0.0132,0.0166,0.0159,0.0143,0.0217,0.0202,0.0232,0.0231,0.0259,0.0257,0.0272,0.0272,0.0271,0.0271,0.0271,0,-0.0054,-0.0038,-0.0003,0.0008,0.0031,0.0048,0.0067,0.0077,0.01,0.0117,0.0123,0.0139,0.0156,0.0181,0.0193,0.0237,0.0248,0.0262,0.0264,0.026,0.0258,0.0206,0.0197,0.0274,0.0274,0.0273,0.0272,0,-0.0067,-0.0047,-0.0017,0.0018,0.0026,0.0039,0.0068,0.0088,0.0103,0.0128,0.0133,0.0155,0.0184,0.0203,0.0254,0.0276,0.0321,0.0334,0.0322,0.0322,0.0309,0.03,0.041,0.0411,0.0411,0.0412,0.0413,0,-0.006,-0.0048,-0.0017,-0.0002,0.001,0.0035,0.0053,0.0078,0.0099,0.0131,0.0144,0.0175,0.0215,0.029,0.0358,0.0427,0.034,0.0417,0.0404,0.0338,0.0329,0.0318,0.0308,0.0443,0.0443,0.0444,0.0445,0,-0.0036,-0.0041,-0.0014,0.0004,0.0021,0.0049,0.0074,0.0086,0.0115,0.0152,0.019,0.0233,0.0323,0.039,0.0455,0.0487,0.0409,0.0434,0.0391,0.0395,0.0373,0.0362,0.0351,0.045,0.045,0.0449,0.0449,0.0449,-0.0016,-0.0001,0.0017,0.0032,0.0049,0.0066,0.0097,0.0133,0.0178,0.0247,0.0256,0.0313,0.029,0.043,0.0475,0.0528,0.0547,0.0483,0.048,0.0477,0.0456,0.0435,0.052,0.052,0.052,0.0519,0.0519,0,0.0031,0.0035,0.0053,0.0072,0.0088,0.0088,0.0124,0.0178,0.0252,0.0272,0.0357,0.0311,0.0402,0.0373,0.0527,0.0592,0.0605,0.0512,0.0488,0.0484,0.048,0.0456,0.0522,0.0522,0.0522,0.0522,0,0,0.0065,0.0082,0.0082,0.0113,0.0121,0.016,0.0189,0.0272,0.0299,0.033,0.0325,0.039,0.034,0.0361,0.0427,0.0489,0.0474,0.0495,0.0496,0.0461,0.0456,0.0477,0.0438,0,0,0,0,0]}],[{"header":{"parameterUnit":"m.s-1","parameterCategory":2,"la1":30.2991,"la2":30.254,"lo1":-89.0895,"lo2":-89.0444,"dy":0.0017,"dx":0.0017,"nx":28,"ny":28,"refTime":"2024-07-13T21:00:00:Z","depth":"4","parameterNumber":2,"parameterNumberName":"U-component_of_CURRENTS"},"data":[0,0,0,0,0,0,0,0,0,0,0,0,0,0,0,0,0,0,0,0,0,0,0,0,0,0,0,0,0,0,0,0,0,0,0,0,0,0,0,0,0,0,0,0,0,0,0,0,0,0,0,0,0,0,0,0,0,0,-0.0656,-0.0656,0,-0.0661,-0.0661,-0.0661,-0.0662,-0.0662,-0.0662,-0.0662,-0.0717,-0.0718,-0.072,0,0,0,0,0,0,0,0,0,0,0,0,0,-0.0598,-0.0599,-0.0656,-0.0656,-0.0656,-0.0661,-0.0661,-0.0661,-0.0662,-0.0662,-0.0662,-0.0662,-0.0716,-0.0718,-0.072,0,0,0,0,0,0,0,0,0,0,0,0,0,-0.0615,-0.0599,-0.0655,-0.0657,-0.0657,-0.0661,-0.0661,-0.0661,-0.0662,-0.0662,-0.0662,-0.0662,-0.0716,-0.0718,-0.072,-0.0735,0,0,-0.0727,-0.0728,0,0,0,0,0,0,0,0,-0.0614,-0.0617,-0.0657,-0.0657,-0.0657,-0.0661,-0.0661,-0.0688,-0.0662,-0.066,-0.0662,-0.0662,-0.0703,-0.0706,-0.0706,-0.0738,-0.074,-0.0727,-0.0729,-0.0729,-0.073,0,0,0,0,0,0,0,-0.0613,-0.0617,-0.0658,-0.0657,-0.0657,-0.0641,-0.0644,-0.0666,-0.0683,-0.066,-0.066,-0.0661,-0.0703,-0.0704,-0.0708,-0.0741,-0.0727,-0.0729,-0.073,-0.0731,-0.0889,-0.0891,0,0,0,0,0,0,-0.0615,-0.0616,-0.0657,-0.0658,-0.0635,-0.0642,-0.0645,-0.066,-0.0681,-0.0684,-0.0661,-0.0661,-0.07,-0.0705,-0.071,-0.0868,-0.0729,-0.0732,-0.0733,-0.0886,-0.0889,-0.0892,0,0,0,0,0,0,-0.0614,-0.062,-0.0657,-0.0636,-0.064,-0.0644,-0.0659,-0.066,-0.0671,-0.0681,-0.0685,-0.0673,-0.0701,-0.0707,-0.0737,-0.0864,-0.0733,-0.0735,-0.0883,-0.0887,-0.0891,-0.1094,0,0,0,0,0,0,-0.0613,-0.062,-0.0637,-0.0637,-0.0641,-0.0667,-0.066,-0.066,-0.0671,-0.0671,-0.0693,-0.0697,-0.0701,-0.0733,-0.0739,-0.0865,-0.0736,-0.0879,-0.0885,-0.089,-0.1084,-0.1105,-0.1123,0,0,0,0,0,-0.0611,-0.0632,-0.0638,-0.0643,-0.0664,-0.0667,-0.0668,-0.0669,-0.0672,-0.0679,-0.0693,-0.0697,-0.0773,-0.0736,-0.0742,-0.0873,-0.0876,-0.0883,-0.0889,-0.1075,-0.1101,-0.1122,0,0,0,0,0,0,-0.0612,-0.0635,-0.0641,-0.0668,-0.0671,-0.0668,-0.0673,-0.0678,-0.0694,-0.0696,-0.0708,-0.0714,-0.0795,-0.0782,-0.0741,-0.0929,-0.0837,-0.0844,-0.0976,-0.1,-0.1019,-0.0993,-0.0738,0,0,0,0,0,-0.0623,-0.0645,-0.0656,-0.0674,-0.0677,-0.0679,-0.0683,-0.0685,-0.0694,-0.07,-0.0732,-0.0767,-0.0825,-0.0865,-0.0886,-0.0977,-0.0906,-0.1068,-0.1088,-0.1105,-0.1086,-0.1071,-0.1087,-0.0913,-0.0913,-0.0913,0,0,-0.0627,-0.064,-0.0654,-0.0675,-0.0675,-0.0685,-0.0681,-0.0688,-0.0717,-0.0706,-0.0769,-0.0819,-0.0852,-0.096,-0.1001,-0.0973,-0.1121,-0.1113,-0.1128,-0.1098,-0.108,-0.1096,-0.1111,-0.0918,-0.0917,-0.0916,0,0,-0.0631,-0.0658,-0.0673,-0.0677,-0.0684,-0.0692,-0.0699,-0.072,-0.0752,-0.0811,-0.0837,-0.0948,-0.101,-0.1096,-0.1139,-0.127,-0.1204,-0.1303,-0.1415,-0.1405,-0.1418,-0.1429,-0.1373,-0.1377,-0.1339,-0.134,-0.134,0,-0.0635,-0.0648,-0.0675,-0.068,-0.0683,-0.0699,-0.0705,-0.0744,-0.0783,-0.0836,-0.0846,-0.1037,-0.1084,-0.1253,-0.1323,-0.1325,-0.1265,-0.1336,-0.143,-0.1439,-0.1447,-0.1386,-0.1388,-0.135,-0.1349,-0.1348,-0.1347,0,-0.0638,-0.0649,-0.0651,-0.0672,-0.0694,-0.0689,-0.0742,-0.0802,-0.0862,-0.0917,-0.1089,-0.1189,-0.1319,-0.1393,-0.1406,-0.1547,-0.1467,-0.1438,-0.1372,-0.1477,-0.1406,-0.1404,-0.1365,-0.1361,-0.1358,-0.1356,0,0,-0.0632,-0.065,-0.0649,-0.0656,-0.068,-0.0701,-0.0778,-0.0858,-0.0944,-0.1064,-0.12,-0.1394,-0.1492,-0.1544,-0.1638,-0.1667,-0.1716,-0.1595,-0.159,-0.1539,-0.1643,-0.1454,-0.1433,-0.1695,-0.1696,-0.1697,-0.1575,0,-0.0612,-0.0619,-0.0642,-0.0659,-0.0661,-0.072,-0.0781,-0.0876,-0.1005,-0.1148,-0.1322,-0.1481,-0.1541,-0.1671,-0.1719,-0.17,-0.1717,-0.1747,-0.1545,-0.1538,-0.1359,-0.1428,-0.1699,-0.1573,-0.1572,-0.1572,-0.1571,0,-0.0593,-0.0601,-0.0614,-0.065,-0.066,-0.0698,-0.0841,-0.0921,-0.112,-0.1249,-0.1475,-0.1566,-0.1743,-0.1746,-0.1777,-0.1784,-0.173,-0.1691,-0.1685,-0.1424,-0.1346,-0.144,-0.1567,-0.1567,-0.1568,-0.1568,-0.1568,0,-0.0565,-0.058,-0.0595,-0.0601,-0.0656,-0.0716,-0.0787,-0.0963,-0.106,-0.1364,-0.1458,-0.1665,-0.1763,-0.176,-0.1718,-0.1746,-0.1636,-0.1663,-0.1436,-0.1421,-0.1536,-0.1525,-0.1632,-0.1633,-0.1633,-0.1633,-0.1634,0,-0.0517,-0.0527,-0.0593,-0.0598,-0.0632,-0.0722,-0.0826,-0.0978,-0.1183,-0.1257,-0.1534,-0.1561,-0.1753,-0.1711,-0.1692,-0.153,-0.162,-0.1435,-0.138,-0.1626,-0.1626,-0.1535,-0.1525,-0.1628,-0.163,-0.163,-0.1631,0,-0.0469,-0.05,-0.0519,-0.0591,-0.0613,-0.0675,-0.0798,-0.0879,-0.112,-0.124,-0.1328,-0.1476,-0.1401,-0.1502,-0.145,-0.1445,-0.1349,-0.126,-0.1477,-0.1437,-0.1152,-0.1155,-0.1028,-0.102,-0.1013,-0.1008,-0.1004,0,-0.044,-0.0447,-0.0506,-0.0515,-0.0549,-0.0632,-0.0649,-0.086,-0.0926,-0.1072,-0.106,-0.1087,-0.1142,-0.0969,-0.1051,-0.1049,-0.1037,-0.1055,-0.1171,-0.1132,-0.1092,-0.1105,-0.1116,-0.0993,-0.0992,-0.099,-0.0988,0,-0.0382,-0.0416,-0.0431,-0.0447,-0.047,-0.0477,-0.0529,-0.0554,-0.0731,-0.0895,-0.0831,-0.0855,-0.0739,-0.0755,-0.0795,-0.0765,-0.1112,-0.0989,-0.1005,-0.1113,-0.1089,-0.1059,-0.1077,-0.0966,-0.0969,-0.0971,-0.0972,0,-0.0349,-0.0337,-0.0362,-0.0377,-0.0366,-0.0329,-0.0376,-0.0374,-0.045,-0.0636,-0.0494,-0.0546,-0.0602,-0.0578,-0.0532,-0.059,-0.0611,-0.0707,-0.0739,-0.0765,-0.0746,-0.0681,-0.0368,0,0,0,0,0,-0.0304,-0.0289,-0.0287,-0.0276,-0.0251,-0.0252,-0.0268,-0.032,-0.0396,-0.0339,-0.0483,-0.0371,-0.0383,-0.0338,-0.0348,-0.0376,-0.0604,-0.0387,-0.0729,-0.0842,-0.0867,-0.0876,0,0,0,0,0,0,-0.0281,-0.0268,-0.0262,-0.0176,-0.0146,-0.0106,-0.011,-0.0176,-0.0151,-0.0251,-0.0219,-0.0349,-0.0311,-0.037,-0.0331,-0.0342,-0.0557,-0.0424,-0.0423,-0.0827,-0.085,-0.0871,-0.0889,0,0,0,0,0]},{"header":{"parameterUnit":"m.s-1","parameterCategory":2,"la1":30.2991,"la2":30.254,"lo1":-89.0895,"lo2":-89.0444,"dy":0.0017,"dx":0.0017,"nx":28,"ny":28,"refTime":"2024-07-13T21:00:00:Z","depth":"4","parameterNumber":3,"parameterNumberName":"V-component_of_CURRENTS"},"data":[0,0,0,0,0,0,0,0,0,0,0,0,0,0,0,0,0,0,0,0,0,0,0,0,0,0,0,0,0,0,0,0,0,0,0,0,0,0,0,0,0,0,0,0,0,0,0,0,0,0,0,0,0,0,0,0,0,0,0.0202,0.0202,0,0.0193,0.0192,0.0192,0.0236,0.0238,0.0239,0.024,0.0245,0.0244,0.0243,0,0,0,0,0,0,0,0,0,0,0,0,0,0.021,0.021,0.0202,0.0202,0.0202,0.0193,0.0192,0.0192,0.0236,0.0238,0.0239,0.0241,0.0245,0.0244,0.0243,0,0,0,0,0,0,0,0,0,0,0,0,0,0.0203,0.021,0.0202,0.0224,0.0226,0.0193,0.0192,0.0192,0.0236,0.0238,0.024,0.0242,0.0246,0.0244,0.0242,0.0189,0,0,0.0237,0.0236,0,0,0,0,0,0,0,0,0.0203,0.0202,0.0221,0.0222,0.0225,0.0219,0.0197,0.0192,0.0235,0.023,0.024,0.0243,0.0237,0.0236,0.0227,0.0189,0.019,0.0237,0.0236,0.0235,0.0234,0,0,0,0,0,0,0,0.0204,0.0203,0.0197,0.0221,0.0223,0.0218,0.0219,0.0196,0.0221,0.0231,0.0235,0.0235,0.0238,0.0229,0.0228,0.019,0.0237,0.0235,0.0234,0.0233,0.012,0.0119,0,0,0,0,0,0,0.0208,0.0203,0.0197,0.0197,0.022,0.0216,0.0218,0.0218,0.0221,0.0224,0.0233,0.0237,0.0231,0.023,0.0228,0.021,0.0235,0.0233,0.0232,0.0122,0.012,0.0118,0,0,0,0,0,0,0.0208,0.0207,0.0198,0.0201,0.02,0.0214,0.0213,0.0216,0.0217,0.0223,0.0226,0.0232,0.0233,0.0231,0.0194,0.0209,0.0233,0.0231,0.0125,0.0122,0.0119,0.0145,0,0,0,0,0,0,0.0208,0.0207,0.0205,0.0201,0.02,0.0168,0.0211,0.0215,0.0214,0.0219,0.0222,0.0225,0.0234,0.0197,0.0193,0.0207,0.023,0.0127,0.0123,0.012,0.0147,0.0144,0.0141,0,0,0,0,0,0.0208,0.019,0.0205,0.0204,0.0198,0.0167,0.0164,0.0181,0.0212,0.0193,0.0195,0.0225,0.0172,0.0193,0.0189,0.0204,0.0129,0.0124,0.012,0.0148,0.0144,0.0141,0,0,0,0,0,0,0.0189,0.0193,0.0209,0.0194,0.018,0.0175,0.016,0.0176,0.0162,0.0169,0.019,0.0189,0.0157,0.0159,0.0182,0.0153,0.0159,0.0153,0.0182,0.0178,0.0175,0.0206,0.0228,0,0,0,0,0,0.0184,0.0173,0.0174,0.0158,0.0152,0.0157,0.015,0.0155,0.0146,0.0144,0.015,0.0147,0.013,0.0139,0.0106,0.0094,0.0123,0.0098,0.0095,0.0093,0.0111,0.0167,0.0173,0.0104,0.0104,0.0104,0,0,0.0173,0.0172,0.0167,0.0153,0.0147,0.0104,0.0157,0.0132,0.0098,0.0142,0.0102,0.0118,0.0112,0.0092,0.0083,0.0108,0.0119,0.0088,0.0087,0.0106,0.0164,0.0171,0.0178,0.0101,0.0101,0.0102,0,0,0.0123,0.0141,0.011,0.0089,0.0073,0.0066,0.0059,0.0051,0.0054,0.0011,0.0042,0.0071,0.0028,0.0061,0.0064,0.0019,0.0078,0.0012,0.006,0.0114,0.0122,0.013,0.0154,0.0163,0.0042,0.0042,0.0042,0,0.0108,0.0074,0.0092,0.0045,0.0018,0.0045,-0.0013,-0.0022,-0.004,-0.0049,-0.0012,-0.0005,0.0013,0.003,0.0048,0.002,0.0058,0.0085,0.0118,0.0126,0.0133,0.0156,0.0167,0.0043,0.0043,0.0042,0.0042,0,0.0031,-0.0001,-0.0027,-0.0074,-0.0108,-0.015,-0.0164,-0.0185,-0.0167,-0.0165,-0.015,-0.0084,-0.0045,-0.0033,0.0011,0.008,0.0088,0.0091,0.0145,0.0144,0.0165,0.0176,0.0044,0.0043,0.0043,0.0043,0,0,0.0006,-0.0064,-0.0074,-0.0116,-0.0171,-0.0208,-0.0273,-0.0317,-0.0341,-0.0296,-0.0285,-0.022,-0.0103,-0.0086,0.0009,0.0097,0.0202,0.0156,0.0158,0.0212,0.0322,0.0198,0.0198,0.0238,0.0241,0.0243,0.031,0,-0.0059,-0.0155,-0.0184,-0.0291,-0.0342,-0.036,-0.042,-0.0457,-0.0454,-0.044,-0.0316,-0.0265,-0.0147,-0.005,0.0052,0.0153,0.0236,0.0183,0.0288,0.029,0.0209,0.0208,0.025,0.0318,0.0321,0.0323,0.0324,0,-0.0128,-0.018,-0.0288,-0.0384,-0.0408,-0.0477,-0.0551,-0.0599,-0.059,-0.0555,-0.0443,-0.0336,-0.0152,-0.0053,0.0162,0.0137,0.0251,0.0323,0.0327,0.0217,0.0186,0.0321,0.0344,0.0342,0.0341,0.0339,0.0338,0,-0.0145,-0.0258,-0.0341,-0.0377,-0.0481,-0.0539,-0.0591,-0.0639,-0.0663,-0.0579,-0.0539,-0.0353,-0.0213,-0.0036,0.0159,0.0198,0.0336,0.0386,0.036,0.0351,0.0439,0.043,0.052,0.052,0.052,0.0519,0.0519,0,-0.0204,-0.0272,-0.0354,-0.0403,-0.0502,-0.0567,-0.0655,-0.0675,-0.0678,-0.0675,-0.0541,-0.044,-0.0186,-0.0068,0.0116,0.0246,0.0306,0.0368,0.0366,0.0438,0.0429,0.0445,0.0436,0.0522,0.0521,0.0521,0.052,0,-0.0226,-0.0278,-0.0374,-0.048,-0.0516,-0.0586,-0.0687,-0.0724,-0.0725,-0.0697,-0.0632,-0.0489,-0.0323,-0.0175,0.0067,0.0162,0.0304,0.0324,0.0344,0.034,0.0306,0.0296,0.035,0.0346,0.0343,0.034,0.0338,0,-0.0254,-0.0299,-0.0407,-0.046,-0.0518,-0.0614,-0.0664,-0.0713,-0.0717,-0.0703,-0.0646,-0.0538,-0.0416,-0.0208,-0.0049,0.0157,0.0198,0.0257,0.0356,0.0299,0.0292,0.0287,0.0282,0.0333,0.0332,0.0332,0.0331,0,-0.0295,-0.032,-0.0385,-0.0468,-0.054,-0.0615,-0.0672,-0.0675,-0.0693,-0.0707,-0.06,-0.0497,-0.0394,-0.0202,-0.0125,0.0058,0.0222,0.0227,0.0238,0.0332,0.0279,0.0275,0.0273,0.032,0.0322,0.0323,0.0323,0,-0.0309,-0.0345,-0.04,-0.0476,-0.0545,-0.0577,-0.0629,-0.0615,-0.0628,-0.0599,-0.0558,-0.0462,-0.0395,-0.0259,-0.0144,-0.0052,0.0039,0.0142,0.016,0.0173,0.0085,-0.001,-0.0055,0,0,0,0,0,-0.0321,-0.0344,-0.0406,-0.0475,-0.0527,-0.0562,-0.0604,-0.0634,-0.0642,-0.0556,-0.0563,-0.0451,-0.0321,-0.0256,-0.0172,-0.019,0.0035,-0.009,0.016,0.026,0.0272,0.0186,0,0,0,0,0,0,-0.0337,-0.0378,-0.039,-0.0431,-0.0468,-0.0517,-0.0539,-0.0559,-0.0498,-0.0502,-0.0417,-0.0418,-0.0281,-0.0362,-0.0163,-0.0146,0.003,-0.0044,-0.0042,0.0253,0.0264,0.0274,0.019,0,0,0,0,0]}]]